User: anonymous   Login
Location: Caltech
(34.1382°N, 118.1253°W)
Time: 17:42:51
(UTC-07:00)
Language:

AO-Echo - Orbit

View from above orbital plane
View from above orbital plane
View from above satellite
View from above satellite

Ground track
Ground track

The orbit data is extracted from the following two-line orbital elements,

1 28375U 04025K   18111.54805391 +.00000040 +00000-0 +24869-4 0  9990
2 28375 098.3827 043.9831 0083741 074.0539 286.9857 14.41882920726192
Epoch (UTC): 21 April 2018 13:09:11
Eccentricity: 0.0083741
inclination: 98.3827°
perigee height: 692 km
apogee height: 812 km
right ascension of ascending node: 43.9831°
argument of perigee: 74.0539°
revolutions per day: 14.41882920
mean anomaly at epoch: 286.9857°
orbit number at epoch: 72619

The dashed part of the orbit path shows where the satellite is in the earth's shadow,  

DLR